Flag for Canada Weather past 2 weeks in Sidney, British Columbia, Canada

Now
70 °F

Passing clouds.


Feels Like: 70 °F
Forecast: 60 / 78 °F
Wind: 9 mph from Southeast

Location: Victoria Int. Airportb. C.

Current Time: Jun 30, 2015 at 1:41:30 PM

Latest Report: Jun 30, 2015 at 1:00 PM


Visibility: 30 mi

Pressure: 30.09 "Hg

Humidity: 60%

Dew point: 55 °F

Location of SidneyLocation

Historic Weather in Sidney — Graph

°F

Sidney temperature yesterday

Maximum temperature yesterday: 75 °F (at 2:00 PM)
Minimum temperature yesterday: 63 °F (at 6:00 AM)
Average temperature yesterday: 69 °F

Past Weeks' High & Low Weather Summary

 TemperatureHumidityPressure
High84 °F (Jun 27, 7:00 PM)100% (Jun 19, 4:00 AM)30.16 "Hg (Jun 19, 4:00 AM)
Low50 °F (Jun 19, 4:00 AM)30% (Jun 21, 4:00 PM)29.87 "Hg (Jun 15, 7:00 PM)
Average66 °F63%30.02 "Hg
* Reported Jun 15 12:00 Noon — Jun 30 12:00 Noon, Sidney, Weather by CustomWeather, © 2015

Note: Actual official high and low records may vary slightly from our data, if they occured in-between our weather recording intervals... More about our weather records

Advertising

Sidney weather history for previous 24 hours

 ConditionsComfort  
Time TempWeatherWind HumidityBarometerVisibility
12:00 PM
Tue, Jun 30
68 °FPassing clouds.10 mph64%30.10 "Hg30 mi
11:00 AM66 °FPassing clouds.8 mph68%30.11 "Hg30 mi
10:00 AM66 °FPassing clouds.7 mph68%30.10 "Hg30 mi
9:00 AM64 °FPassing clouds.7 mph68%30.10 "Hg30 mi
8:00 AM63 °FPassing clouds.7 mph77%30.09 "Hg30 mi
7:00 AM61 °FPassing clouds.5 mph83%30.09 "Hg30 mi
6:00 AM59 °FPassing clouds.2 mph88%30.06 "Hg30 mi
5:00 AM63 °FPassing clouds.5 mph77%30.05 "Hg30 mi
4:00 AM64 °FPassing clouds.7 mph73%30.04 "Hg30 mi
3:00 AM61 °FClear.No wind83%30.03 "Hg30 mi
2:00 AM61 °FClear.2 mph83%30.03 "Hg30 mi
1:00 AM61 °FClear.2 mph83%30.01 "Hg30 mi
12:00 AM63 °FClear.6 mph77%30.00 "Hg30 mi
11:00 PM
Mon, Jun 29
63 °FPassing clouds.2 mph77%29.99 "Hg30 mi
10:00 PM64 °FPassing clouds.3 mph73%29.98 "Hg30 mi
9:00 PM66 °FPassing clouds.5 mph64%29.96 "Hg30 mi
8:00 PM70 °FPassing clouds.6 mph60%29.95 "Hg30 mi
7:00 PM70 °FPassing clouds.5 mph60%29.94 "Hg30 mi
6:00 PM70 °FPassing clouds.6 mph60%29.94 "Hg30 mi
5:00 PM72 °FPassing clouds.7 mph57%29.95 "Hg30 mi
4:00 PM72 °FPassing clouds.8 mph61%29.96 "Hg30 mi
3:00 PM70 °FPassing clouds.9 mph60%29.96 "Hg30 mi
2:00 PM75 °FPassing clouds.7 mph54%29.97 "Hg30 mi
1:00 PM73 °FPassing clouds.8 mph61%29.97 "Hg30 mi
Weather by CustomWeather, © 2015

See weather overviewHow to use our weather pages